Niagara Airport

*Note: All times are displayed in the local standard time of the station location.
**Rain - Equipment is designed to accurately record liquid precipitation; under conditions when precipitation is not in liquid form, the data displayed may not properly reflect rainfall values.

Date Max Temp
(°C)
Min Temp
(°C)
Avg Temp
(°C)
Rain (mm) Avg RH (%)
Sat, Feb 17, 2018 -1.0 -5.9 -2.9 0.0 67.8
Fri, Feb 16, 2018 4.4 -5.6 0.1 0.0 76.1
Thu, Feb 15, 2018 9.4 2.9 6.4 0.2 92.0
Wed, Feb 14, 2018 5.2 -4.7 2.7 6.4 71.7
Tue, Feb 13, 2018 -1.1 -13.5 -6.9 0.2 71.6
Mon, Feb 12, 2018 -1.7 -10.3 -4.2 0.2 66.9
Sun, Feb 11, 2018 0.7 -4.0 -1.8 2.4 87.9
DateTime Avg Temp (°C) Rain (mm) RH (%)
Sun, Feb 18, 2018 04:00 -2.1 0.0 82.8
Sun, Feb 18, 2018 03:00 -1.6 0.0 80.0
Sun, Feb 18, 2018 02:00 -1.6 0.0 83.5
Sun, Feb 18, 2018 01:00 -1.7 0.0 83.3
Sun, Feb 18, 2018 00:00 -1.5 0.0 80.0
Sat, Feb 17, 2018 23:00 -1.4 0.0 73.3
Sat, Feb 17, 2018 22:00 -1.6 0.0 67.8
Sat, Feb 17, 2018 21:00 -1.6 0.0 66.5
Sat, Feb 17, 2018 20:00 -1.6 0.0 63.3
Sat, Feb 17, 2018 19:00 -1.6 0.0 59.8
Sat, Feb 17, 2018 18:00 -1.4 0.0 56.0
Sat, Feb 17, 2018 17:00 -1.2 0.0 56.3
Sat, Feb 17, 2018 16:00 -1.2 0.0 56.5
Sat, Feb 17, 2018 15:00 -1.0 0.0 57.5
Sat, Feb 17, 2018 14:00 -1.1 0.0 57.8
Sat, Feb 17, 2018 13:00 -1.2 0.0 59.0
Sat, Feb 17, 2018 12:00 -1.3 0.0 60.0
Sat, Feb 17, 2018 11:00 -1.9 0.0 61.8
Sat, Feb 17, 2018 10:00 -2.7 0.0 65.8
Sat, Feb 17, 2018 09:00 -4.0 0.0 70.0
Sat, Feb 17, 2018 08:00 -5.3 0.0 74.8
Sat, Feb 17, 2018 07:00 -5.7 0.0 77.5
Sat, Feb 17, 2018 06:00 -5.6 0.0 78.3
Sat, Feb 17, 2018 05:00 -5.6 0.0 79.8
Sat, Feb 17, 2018 04:00 -5.4 0.0 78.3
Sat, Feb 17, 2018 03:00 -5.7 0.0 76.8
Sat, Feb 17, 2018 02:00 -5.6 0.0 75.3
Sat, Feb 17, 2018 01:00 -5.6 0.0 76.3
Sat, Feb 17, 2018 00:00 -5.2 0.0 73.0
Fri, Feb 16, 2018 23:00 -4.7 0.0 71.0
Fri, Feb 16, 2018 22:00 -4.1 0.0 66.0
Fri, Feb 16, 2018 21:00 -3.8 0.0 61.5
Fri, Feb 16, 2018 20:00 -3.3 0.0 59.0
Fri, Feb 16, 2018 19:00 -3.1 0.0 57.0
Fri, Feb 16, 2018 18:00 -2.3 0.0 58.3
Fri, Feb 16, 2018 17:00 -1.0 0.0 58.3
Fri, Feb 16, 2018 16:00 0.4 0.0 59.0
Fri, Feb 16, 2018 15:00 1.5 0.0 59.3
Fri, Feb 16, 2018 14:00 1.7 0.0 64.0
Fri, Feb 16, 2018 13:00 1.9 0.0 66.5
Fri, Feb 16, 2018 12:00 1.7 0.0 76.5
Fri, Feb 16, 2018 11:00 1.0 0.0 85.8
Fri, Feb 16, 2018 10:00 1.3 0.0 83.8
Fri, Feb 16, 2018 09:00 1.2 0.0 83.8
Fri, Feb 16, 2018 08:00 1.3 0.0 85.3
Fri, Feb 16, 2018 07:00 2.0 0.0 86.3
Fri, Feb 16, 2018 06:00 2.1 0.0 84.3
Fri, Feb 16, 2018 05:00 2.1 0.0 88.3


asterix Register now to access more data! asterix